When you browse on this site, cookies collect data to enhance your experience and personalize the content and advertising you see.
Visit our Privacy Policy to learn more. By continuing to use the site, you agree to this use of cookies and data.
  • în România
  • Lista ţărilor
  • Pe 7 zile
  • Temperatura apei
  • Hartă satelitară
  • Meteo pe hartă
  • Widget-uri
  • user-avatar
    Intrare

    Meteo pe oră la Wien

    Astăzi, 22 Mai, Miercuri

    Timp Temperatura Precipitaţii Vânt Presiune Umiditate
    00:00 +13°C° 0 mm 6 m/s 738 mmHg 73%
    01:00 +12°C° 0 mm 7 m/s 738 mmHg 74%
    02:00 +12°C° 0.1 mm 7 m/s 738 mmHg 75%
    03:00 +13°C° 0.1 mm 6 m/s 738 mmHg 77%
    04:00 +13°C° 0.1 mm 6 m/s 738 mmHg 79%
    05:00 +13°C° 0.4 mm 6 m/s 738 mmHg 80%
    06:00 +12°C° 0.4 mm 7 m/s 738 mmHg 82%
    07:00 +13°C° 0 mm 6 m/s 738 mmHg 85%
    08:00 +13°C° 0.7 mm 6 m/s 738 mmHg 85%
    09:00 +14°C° 0.7 mm 7 m/s 738 mmHg 85%
    10:00 +14°C° 0.7 mm 7 m/s 739 mmHg 84%
    11:00 +14°C° 1.4 mm 7 m/s 739 mmHg 85%
    12:00 +14°C° 1.4 mm 7 m/s 739 mmHg 85%
    13:00 +14°C° 1.4 mm 7 m/s 740 mmHg 85%
    14:00 +14°C° 1.2 mm 7 m/s 740 mmHg 86%
    15:00 +14°C° 1.2 mm 7 m/s 740 mmHg 86%
    16:00 +14°C° 1.2 mm 7 m/s 740 mmHg 87%
    17:00 +14°C° 0.8 mm 6 m/s 740 mmHg 87%
    18:00 +13°C° 0.8 mm 6 m/s 741 mmHg 87%
    19:00 +13°C° 0.8 mm 6 m/s 741 mmHg 88%
    20:00 +13°C° 0.5 mm 6 m/s 741 mmHg 88%
    21:00 +13°C° 0.5 mm 6 m/s 742 mmHg 88%
    22:00 +13°C° 0.5 mm 6 m/s 742 mmHg 88%
    23:00 +11°C° 0.9 mm 6 m/s 742 mmHg 88%

    Mâine, 23 Mai, Joi

    Timp Temperatura Precipitaţii Vânt Presiune Umiditate
    00:00 +11°C° 0.9 mm 6 m/s 742 mmHg 88%
    01:00 +11°C° 0.9 mm 6 m/s 743 mmHg 88%
    02:00 +11°C° 0.4 mm 6 m/s 743 mmHg 88%
    03:00 +11°C° 0.4 mm 6 m/s 743 mmHg 87%
    04:00 +10°C° 0.4 mm 6 m/s 743 mmHg 87%
    05:00 +10°C° 0.4 mm 6 m/s 743 mmHg 87%
    06:00 +10°C° 0.4 mm 6 m/s 743 mmHg 86%
    07:00 +10°C° 0.4 mm 6 m/s 743 mmHg 86%
    08:00 +10°C° 0.3 mm 6 m/s 744 mmHg 85%
    09:00 +10°C° 0.3 mm 6 m/s 744 mmHg 84%
    10:00 +11°C° 0.3 mm 6 m/s 744 mmHg 83%
    11:00 +13°C° 0 mm 6 m/s 744 mmHg 76%
    12:00 +14°C° 0 mm 6 m/s 744 mmHg 70%
    13:00 +15°C° 0 mm 6 m/s 744 mmHg 63%
    14:00 +16°C° 0 mm 6 m/s 743 mmHg 60%
    15:00 +17°C° 0 mm 6 m/s 743 mmHg 57%
    16:00 +17°C° 0 mm 6 m/s 743 mmHg 54%
    17:00 +16°C° 0 mm 5 m/s 743 mmHg 57%
    18:00 +15°C° 0 mm 4 m/s 743 mmHg 60%
    19:00 +14°C° 0 mm 3 m/s 743 mmHg 63%
    20:00 +13°C° 0 mm 3 m/s 743 mmHg 66%
    21:00 +14°C° 0 mm 2 m/s 744 mmHg 68%
    22:00 +13°C° 0 mm 2 m/s 744 mmHg 70%
    23:00 +12°C° 0 mm 2 m/s 744 mmHg 72%

    Poimâine, 24 Mai, Vineri

    Timp Temperatura Precipitaţii Vânt Presiune Umiditate
    00:00 +11°C° 0 mm 3 m/s 744 mmHg 73%
    01:00 +10°C° 0 mm 3 m/s 744 mmHg 74%
    02:00 +10°C° 0 mm 3 m/s 743 mmHg 74%
    03:00 +9°C° 0 mm 3 m/s 743 mmHg 73%
    04:00 +9°C° 0 mm 3 m/s 743 mmHg 73%
    05:00 +10°C° 0 mm 3 m/s 743 mmHg 71%
    06:00 +12°C° 0 mm 3 m/s 743 mmHg 69%
    07:00 +13°C° 0 mm 3 m/s 743 mmHg 67%
    08:00 +14°C° 0 mm 3 m/s 743 mmHg 62%
    09:00 +17°C° 0 mm 4 m/s 742 mmHg 57%
    10:00 +19°C° 0 mm 4 m/s 742 mmHg 53%
    11:00 +19°C° 0 mm 4 m/s 742 mmHg 51%
    12:00 +20°C° 0 mm 4 m/s 742 mmHg 48%
    13:00 +21°C° 0 mm 4 m/s 742 mmHg 46%
    14:00 +21°C° 0 mm 3 m/s 741 mmHg 47%
    15:00 +21°C° 0 mm 3 m/s 741 mmHg 47%
    16:00 +21°C° 0 mm 3 m/s 740 mmHg 48%
    17:00 +20°C° 0 mm 2 m/s 740 mmHg 52%
    18:00 +19°C° 0 mm 2 m/s 740 mmHg 57%
    19:00 +18°C° 0 mm 1 m/s 740 mmHg 62%
    20:00 +16°C° 0 mm 1 m/s 741 mmHg 65%
    21:00 +15°C° 0 mm 1 m/s 741 mmHg 68%
    22:00 +14°C° 0 mm 1 m/s 741 mmHg 71%
    23:00 +13°C° 0 mm 1 m/s 741 mmHg 73%

    25 Mai, Sâmbătă

    Timp Temperatura Precipitaţii Vânt Presiune Umiditate
    00:00 +13°C° 0 mm 1 m/s 741 mmHg 75%
    01:00 +12°C° 0 mm 1 m/s 741 mmHg 76%
    02:00 +12°C° 0 mm 1 m/s 741 mmHg 78%
    03:00 +11°C° 0 mm 1 m/s 741 mmHg 79%
    04:00 +11°C° 0 mm 1 m/s 741 mmHg 81%
    05:00 +13°C° 0 mm 1 m/s 741 mmHg 76%
    06:00 +14°C° 0 mm 1 m/s 741 mmHg 72%
    07:00 +16°C° 0 mm 1 m/s 741 mmHg 67%
    08:00 +18°C° 0 mm 1 m/s 741 mmHg 62%
    09:00 +20°C° 0 mm 1 m/s 741 mmHg 57%
    10:00 +22°C° 0 mm 1 m/s 741 mmHg 51%
    11:00 +23°C° 0 mm 1 m/s 741 mmHg 48%
    12:00 +24°C° 0 mm 1 m/s 741 mmHg 46%
    13:00 +25°C° 0 mm 1 m/s 741 mmHg 43%
    14:00 +25°C° 0 mm 1 m/s 740 mmHg 43%
    15:00 +25°C° 0 mm 1 m/s 740 mmHg 43%
    16:00 +25°C° 0 mm 1 m/s 740 mmHg 44%
    17:00 +24°C° 0 mm 1 m/s 740 mmHg 49%
    18:00 +22°C° 0 mm 1 m/s 740 mmHg 54%
    19:00 +21°C° 0 mm 1 m/s 740 mmHg 59%
    20:00 +20°C° 0 mm 1 m/s 740 mmHg 62%
    21:00 +19°C° 0 mm 1 m/s 741 mmHg 65%
    22:00 +18°C° 0 mm 1 m/s 741 mmHg 68%
    23:00 +16°C° 0 mm 1 m/s 741 mmHg 71%

    26 Mai, Duminică

    Timp Temperatura Precipitaţii Vânt Presiune Umiditate
    00:00 +15°C° 0 mm 1 m/s 741 mmHg 74%
    01:00 +14°C° 0 mm 0 m/s 740 mmHg 77%
    02:00 +14°C° 0 mm 1 m/s 740 mmHg 79%
    03:00 +14°C° 0 mm 1 m/s 740 mmHg 81%
    04:00 +14°C° 0 mm 1 m/s 740 mmHg 83%
    05:00 +15°C° 0 mm 1 m/s 740 mmHg 79%
    06:00 +16°C° 0 mm 2 m/s 741 mmHg 76%
    07:00 +17°C° 0 mm 2 m/s 741 mmHg 73%
    08:00 +19°C° 0 mm 3 m/s 741 mmHg 69%
    09:00 +20°C° 0 mm 3 m/s 741 mmHg 65%
    10:00 +22°C° 0 mm 3 m/s 741 mmHg 62%
    11:00 +22°C° 0.3 mm 3 m/s 741 mmHg 61%
    12:00 +24°C° 0.3 mm 3 m/s 741 mmHg 60%
    13:00 +24°C° 0.3 mm 3 m/s 740 mmHg 60%
    14:00 +24°C° 0.5 mm 3 m/s 740 mmHg 61%
    15:00 +24°C° 0.5 mm 3 m/s 740 mmHg 62%
    16:00 +22°C° 0.5 mm 3 m/s 740 mmHg 63%
    17:00 +21°C° 0.2 mm 2 m/s 740 mmHg 66%
    18:00 +20°C° 0.2 mm 2 m/s 740 mmHg 69%
    19:00 +20°C° 0.2 mm 1 m/s 740 mmHg 72%
    20:00 +19°C° 0 mm 1 m/s 741 mmHg 75%
    21:00 +18°C° 0 mm 1 m/s 741 mmHg 77%
    22:00 +16°C° 0 mm 1 m/s 742 mmHg 80%
    23:00 +15°C° 0 mm 1 m/s 741 mmHg 81%

    27 Mai, Luni

    Timp Temperatura Precipitaţii Vânt Presiune Umiditate
    00:00 +14°C° 0 mm 0 m/s 741 mmHg 81%
    01:00 +13°C° 0 mm 0 m/s 741 mmHg 81%
    02:00 +13°C° 0 mm 0 m/s 741 mmHg 82%
    03:00 +12°C° 0 mm 0 m/s 741 mmHg 82%
    04:00 +12°C° 0 mm 0 m/s 741 mmHg 82%
    05:00 +13°C° 0 mm 0 m/s 741 mmHg 78%
    06:00 +14°C° 0 mm 0 m/s 741 mmHg 74%
    07:00 +16°C° 0 mm 1 m/s 741 mmHg 70%
    08:00 +19°C° 0 mm 1 m/s 741 mmHg 65%
    09:00 +20°C° 0 mm 2 m/s 740 mmHg 59%
    10:00 +21°C° 0 mm 2 m/s 740 mmHg 53%
    11:00 +23°C° 0 mm 2 m/s 740 mmHg 53%
    12:00 +22°C° 0 mm 3 m/s 739 mmHg 52%
    13:00 +22°C° 0 mm 3 m/s 739 mmHg 52%
    14:00 +22°C° 0 mm 3 m/s 738 mmHg 56%
    15:00 +21°C° 0 mm 3 m/s 738 mmHg 61%
    16:00 +21°C° 0 mm 3 m/s 738 mmHg 65%
    17:00 +20°C° 0 mm 3 m/s 737 mmHg 68%
    18:00 +19°C° 0 mm 3 m/s 737 mmHg 71%
    19:00 +18°C° 0 mm 2 m/s 737 mmHg 74%
    20:00 +17°C° 0 mm 2 m/s 737 mmHg 76%
    21:00 +17°C° 0 mm 2 m/s 737 mmHg 78%
    22:00 +16°C° 0 mm 2 m/s 736 mmHg 80%
    23:00 +16°C° 0.1 mm 1 m/s 736 mmHg 82%
    Arată mai mult